Regional Weather Roundup
Issued by NWS

Home | Current Version | Previous Version | Text Only | Print | Product List | Glossary Off
Versions: 1 2 3 4 5 6 7 8 9 10 11 12 13 14 15 16 17 18 19 20 21 22 23 24 25 26 27 28 29 30 31 32 33 34 35 36 37 38 39 40 41 42 43 44 45 46 47 48 49 50

000
ASUS45 KBOI 220110
RWRID
WEATHER ROUNDUP FOR IDAHO
NATIONAL WEATHER SERVICE BOISE ID
700 PM MDT THU AUG 21 2014

NOTE: "FAIR" INDICATES FEW OR NO CLOUDS BELOW 12000 FEET
WITH NO SIGNIFICANT WEATHER AND/OR OBSTRUCTIONS TO VISIBILITY

IDZ012-014-220200-
SOUTHWEST IDAHO


CITY           SKY/WX    TMP DP  RH WIND       PRES   REMARKS
BOISE          PTSUNNY   81  29  15 N10       29.88F
CALDWELL       PTSUNNY   79  41  25 N6        29.89S
MOUNTAIN HOME  PTSUNNY   83  45  26 N5        29.89R
$$

IDZ016-017-220200-
SOUTHCENTRAL IDAHO


CITY           SKY/WX    TMP DP  RH WIND       PRES   REMARKS
BURLEY         LGT RAIN  65  50  58 W7G28     30.02R
JEROME         LGT RAIN  63  54  72 S15       30.00F
TWIN FALLS     LGT RAIN  63  54  72 S9        30.04R
$$

IDZ019>023-220200-
SOUTHEAST IDAHO


CITY           SKY/WX    TMP DP  RH WIND       PRES   REMARKS
IDAHO FALLS    LGT RAIN  62  52  69 CALM      30.05F
POCATELLO      PTSUNNY   75  50  41 S12       30.02S
REXBURG        CLOUDY    64  48  56 NE10      30.05F
$$

IDZ006-010-011-018-031-032-220200-
CENTRAL IDAHO MOUNTAINS


CITY           SKY/WX    TMP DP  RH WIND       PRES   REMARKS
MCCALL         PTSUNNY   70  26  19 S6        29.99F
HAILEY         TSTM      73  48  40 S16G31    30.05S
STANLEY          N/A     68  38  33 NW8       30.07S
SALMON         PTSUNNY   66  55  68 SE6       29.97R THUNDER
CHALLIS        PTSUNNY   70  45  40 S7        29.98S
$$

IDZ002-004-006-007-026-220200-
NORTHERN IDAHO


CITY           SKY/WX    TMP DP  RH WIND       PRES   REMARKS
LEWISTON       PTSUNNY   84  44  24 W10       29.83F
LOWELL           N/A     77  56  48 CALM      29.81S
COEUR D`ALENE  PTSUNNY   75  48  38 E13       29.90S
MULLAN PASS    PTSUNNY   52  47  83 SE7       30.09R
$$



USA.gov is the U.S. government's official web portal to all federal, state and local government web resources and services.